[[{"header":{"parameterUnit":"m.s-1","parameterCategory":1,"la1":30.2991,"la2":30.254,"lo1":-89.0895,"lo2":-89.0444,"dy":0.0017,"dx":0.0017,"nx":28,"ny":28,"refTime":"2024-08-17T03:00:00:Z","depth":0,"parameterNumber":2,"parameterNumberName":"U-component_of_WINDS"},"data":[0,0,0,0,0,0,0,0,0,0,0,0,0,0,0,0,0,0,0,0,0,0,0,0,0,0,0,0,0,0,0,0,0,0,0,0,0,0,0,0,0,0,0,0,0,0,0,0,0,0,0,0,0,0,0,0,0,0,-0.0762,-0.0761,0,-0.0658,-0.0657,-0.0656,-0.0601,-0.0601,-0.0601,-0.0601,-0.0493,-0.049,-0.0488,0,0,0,0,0,0,0,0,0,0,0,0,0,-0.0913,-0.0911,-0.0762,-0.0761,-0.0759,-0.0658,-0.0657,-0.0655,-0.0601,-0.0601,-0.0601,-0.0601,-0.0494,-0.0491,-0.0487,0,0,0,0,0,0,0,0,0,0,0,0,0,-0.0832,-0.091,-0.0762,-0.072,-0.0715,-0.0659,-0.0657,-0.0655,-0.0601,-0.0601,-0.0601,-0.0601,-0.0495,-0.0491,-0.0487,-0.0464,0,0,-0.0474,-0.0472,0,0,0,0,0,0,0,0,-0.0837,-0.0827,-0.0727,-0.0723,-0.0717,-0.0642,-0.0671,-0.0591,-0.0601,-0.0644,-0.0601,-0.06,-0.0543,-0.0535,-0.0515,-0.0459,-0.0454,-0.0474,-0.0471,-0.0469,-0.0468,0,0,0,0,0,0,0,-0.0843,-0.0831,-0.0721,-0.0726,-0.072,-0.0706,-0.0695,-0.0655,-0.0595,-0.064,-0.0636,-0.0625,-0.054,-0.052,-0.0512,-0.0453,-0.0474,-0.047,-0.0468,-0.0466,-0.0374,-0.0374,0,0,0,0,0,0,-0.0855,-0.0836,-0.0724,-0.0718,-0.0778,-0.0704,-0.0691,-0.0666,-0.0596,-0.0585,-0.0625,-0.0623,-0.0527,-0.0517,-0.0508,-0.0478,-0.0469,-0.0465,-0.0463,-0.0374,-0.0374,-0.0374,0,0,0,0,0,0,-0.0858,-0.0846,-0.0728,-0.0776,-0.076,-0.0701,-0.0675,-0.0664,-0.0644,-0.0584,-0.0573,-0.0615,-0.0526,-0.0514,-0.0476,-0.0473,-0.0464,-0.046,-0.0373,-0.0374,-0.0374,-0.0416,0,0,0,0,0,0,-0.0863,-0.0847,-0.0838,-0.0776,-0.0757,-0.0697,-0.0674,-0.0663,-0.0637,-0.0633,-0.0572,-0.0562,-0.0525,-0.0482,-0.0472,-0.0467,-0.0457,-0.0373,-0.0374,-0.0374,-0.0414,-0.0417,-0.042,0,0,0,0,0,-0.0869,-0.0853,-0.0837,-0.0824,-0.0744,-0.0697,-0.0687,-0.0645,-0.0637,-0.0627,-0.0589,-0.0564,-0.0476,-0.0479,-0.0466,-0.0461,-0.0373,-0.0373,-0.0374,-0.0413,-0.0417,-0.042,0,0,0,0,0,0,-0.0915,-0.0844,-0.0826,-0.079,-0.075,-0.0688,-0.0674,-0.065,-0.0612,-0.0609,-0.056,-0.0546,-0.0513,-0.0483,-0.0488,-0.0436,-0.0422,-0.042,-0.0456,-0.0459,-0.0462,-0.047,-0.0453,0,0,0,0,0,-0.0921,-0.0889,-0.0829,-0.0803,-0.0784,-0.0733,-0.0711,-0.0683,-0.0639,-0.0622,-0.0581,-0.054,-0.0503,-0.0479,-0.0442,-0.041,-0.0397,-0.04,-0.0403,-0.0406,-0.0404,-0.0387,-0.0388,-0.0374,-0.0374,-0.0374,0,0,-0.0933,-0.0891,-0.0873,-0.0811,-0.0777,-0.0745,-0.0719,-0.0686,-0.0662,-0.0617,-0.0578,-0.0547,-0.0498,-0.0463,-0.0446,-0.0437,-0.0405,-0.0406,-0.0408,-0.0405,-0.0387,-0.0388,-0.0389,-0.0374,-0.0374,-0.0374,0,0,-0.0939,-0.0903,-0.0878,-0.0845,-0.0794,-0.0761,-0.0755,-0.0697,-0.0675,-0.0636,-0.0602,-0.0573,-0.051,-0.0476,-0.0451,-0.0447,-0.0423,-0.0437,-0.0451,-0.0434,-0.0435,-0.0436,-0.0435,-0.0436,-0.0435,-0.0435,-0.0435,0,-0.096,-0.0911,-0.0868,-0.0838,-0.0812,-0.0771,-0.0746,-0.0716,-0.0655,-0.0638,-0.063,-0.0552,-0.0515,-0.0473,-0.0472,-0.0453,-0.0445,-0.0443,-0.0439,-0.0439,-0.0439,-0.0438,-0.0438,-0.0437,-0.0437,-0.0437,-0.0437,0,-0.094,-0.0907,-0.0893,-0.0836,-0.0809,-0.0781,-0.0735,-0.0712,-0.0687,-0.0655,-0.0616,-0.0572,-0.0526,-0.0514,-0.0488,-0.0468,-0.0465,-0.0448,-0.0433,-0.0443,-0.0441,-0.044,-0.044,-0.044,-0.0439,-0.0438,0,0,-0.0971,-0.0893,-0.0888,-0.0863,-0.0805,-0.0778,-0.0749,-0.0705,-0.0687,-0.0647,-0.0622,-0.0571,-0.0556,-0.0528,-0.0499,-0.0484,-0.0485,-0.0469,-0.0468,-0.0474,-0.0462,-0.0475,-0.0475,-0.0469,-0.0469,-0.0469,-0.0466,0,-0.0968,-0.0915,-0.0876,-0.0837,-0.0807,-0.0768,-0.0743,-0.0706,-0.0675,-0.0645,-0.0611,-0.0576,-0.0558,-0.0541,-0.0525,-0.0489,-0.0482,-0.0488,-0.0445,-0.0444,-0.0459,-0.0474,-0.0487,-0.0486,-0.0465,-0.0465,-0.0465,0,-0.0958,-0.0921,-0.0879,-0.0826,-0.0812,-0.079,-0.0747,-0.0718,-0.0675,-0.0654,-0.0624,-0.0594,-0.0563,-0.0552,-0.0508,-0.0513,-0.0494,-0.0473,-0.0472,-0.0467,-0.0455,-0.0469,-0.0485,-0.0485,-0.0463,-0.0463,-0.0463,0,-0.0985,-0.0925,-0.0892,-0.0872,-0.0809,-0.0795,-0.0768,-0.0724,-0.0701,-0.0663,-0.0648,-0.0607,-0.0585,-0.0554,-0.0515,-0.051,-0.0476,-0.0461,-0.0458,-0.0459,-0.0452,-0.0453,-0.0466,-0.044,-0.044,-0.044,-0.044,0,-0.0987,-0.0963,-0.0904,-0.0884,-0.0857,-0.0814,-0.0788,-0.0758,-0.072,-0.0694,-0.0658,-0.0635,-0.0584,-0.0555,-0.0524,-0.0493,-0.0483,-0.0466,-0.0458,-0.0469,-0.0471,-0.0455,-0.0454,-0.0439,-0.0439,-0.044,-0.044,0,-0.1012,-0.0972,-0.0934,-0.0878,-0.0864,-0.0846,-0.0799,-0.0778,-0.0747,-0.0714,-0.0704,-0.0655,-0.0619,-0.0577,-0.0526,-0.0506,-0.0478,-0.0466,-0.0492,-0.0488,-0.0487,-0.0488,-0.049,-0.0489,-0.0464,-0.0464,-0.0464,0,-0.1016,-0.0997,-0.0939,-0.092,-0.0894,-0.0863,-0.0839,-0.0796,-0.0773,-0.0724,-0.071,-0.0671,-0.0638,-0.0582,-0.0541,-0.0503,-0.049,-0.0494,-0.0484,-0.0497,-0.0491,-0.0493,-0.0491,-0.0496,-0.0497,-0.0497,-0.0498,0,-0.1026,-0.1008,-0.0975,-0.0936,-0.0908,-0.0875,-0.084,-0.0827,-0.0777,-0.0753,-0.0716,-0.069,-0.064,-0.0602,-0.056,-0.0532,-0.0507,-0.0501,-0.0499,-0.051,-0.0526,-0.0518,-0.05,-0.0501,-0.0501,-0.05,-0.05,-0.05,-0.1041,-0.1023,-0.098,-0.0945,-0.0915,-0.0884,-0.0863,-0.083,-0.0798,-0.0754,-0.0731,-0.0695,-0.0654,-0.0594,-0.0568,-0.0539,-0.053,-0.0526,-0.0525,-0.0525,-0.0529,-0.0531,-0.0531,-0.0531,-0.0531,-0.0531,-0.053,0,-0.105,-0.1022,-0.099,-0.0943,-0.0916,-0.0896,-0.0857,-0.0836,-0.0805,-0.0769,-0.0737,-0.0696,-0.066,-0.0618,-0.0579,-0.0564,-0.0552,-0.0556,-0.0556,-0.0551,-0.0538,-0.0545,-0.0566,-0.0566,-0.0566,-0.0566,-0.0566,-0.0566,-0.1052,-0.1021,-0.0998,-0.0952,-0.0923,-0.0888,-0.0868,-0.0839,-0.0811,-0.0766,-0.0736,-0.0709,-0.0671,-0.063,-0.0596,-0.0585,-0.0573,-0.058,-0.0565,-0.0554,-0.0551,-0.0548,-0.0554,-0.0577,-0.0577,-0.058,-0.058,-0.058]},{"header":{"parameterUnit":"m.s-1","parameterCategory":1,"la1":30.2991,"la2":30.254,"lo1":-89.0895,"lo2":-89.0444,"dy":0.0017,"dx":0.0017,"nx":28,"ny":28,"refTime":"2024-08-17T03:00:00:Z","depth":0,"parameterNumber":3,"parameterNumberName":"V-component_of_WINDS"},"data":[0,0,0,0,0,0,0,0,0,0,0,0,0,0,0,0,0,0,0,0,0,0,0,0,0,0,0,0,0,0,0,0,0,0,0,0,0,0,0,0,0,0,0,0,0,0,0,0,0,0,0,0,0,0,0,0,0,0,3.9821,3.982,0,3.9765,3.9764,3.9764,3.9771,3.9772,3.9772,3.9773,3.9708,3.9706,3.9703,0,0,0,0,0,0,0,0,0,0,0,0,0,3.9928,3.9926,3.9821,3.982,3.982,3.9765,3.9764,3.9763,3.977,3.9772,3.9773,3.9774,3.9709,3.9706,3.9703,0,0,0,0,0,0,0,0,0,0,0,0,0,3.9877,3.9925,3.9821,3.9817,3.9816,3.9765,3.9764,3.9763,3.977,3.9772,3.9773,3.9774,3.971,3.9706,3.9703,3.965,0,0,3.9691,3.9689,0,0,0,0,0,0,0,0,3.988,3.9873,3.9818,3.9817,3.9816,3.9776,3.9778,3.9725,3.977,3.9787,3.9773,3.9775,3.9729,3.9724,3.971,3.9647,3.9645,3.969,3.9688,3.9686,3.9685,0,0,0,0,0,0,0,3.9884,3.9876,3.9799,3.9817,3.9816,3.9815,3.981,3.9768,3.9751,3.9786,3.9786,3.978,3.9729,3.9714,3.9709,3.9644,3.969,3.9687,3.9685,3.9683,3.9536,3.9534,0,0,0,0,0,0,3.9889,3.9879,3.98,3.9797,3.9852,3.9812,3.9806,3.9787,3.9751,3.9747,3.9779,3.978,3.972,3.9713,3.9706,3.9643,3.9686,3.9683,3.968,3.9537,3.9535,3.9534,0,0,0,0,0,0,3.9892,3.9882,3.9803,3.9838,3.9828,3.9809,3.9788,3.9786,3.9771,3.9746,3.9742,3.9767,3.9721,3.9712,3.9665,3.9641,3.9681,3.9677,3.9539,3.9537,3.9535,3.9516,0,0,0,0,0,0,3.9895,3.9883,3.9864,3.9838,3.9826,3.9764,3.9787,3.9784,3.9765,3.9766,3.9734,3.973,3.9721,3.9671,3.9661,3.9636,3.9674,3.9541,3.9538,3.9535,3.9519,3.9514,3.9509,0,0,0,0,0,3.9899,3.986,3.9864,3.9854,3.9803,3.9763,3.9756,3.9748,3.9763,3.9743,3.9728,3.9731,3.9646,3.9666,3.9655,3.9629,3.9543,3.9539,3.9535,3.9521,3.9515,3.9509,0,0,0,0,0,0,3.9881,3.9856,3.986,3.9812,3.979,3.9764,3.9739,3.9742,3.9713,3.9715,3.9705,3.9698,3.9651,3.9635,3.9658,3.9577,3.9596,3.959,3.9589,3.9582,3.9577,3.9581,3.9671,0,0,0,0,0,3.9872,3.9844,3.9823,3.9782,3.9771,3.9757,3.9739,3.9736,3.9711,3.9701,3.9682,3.9656,3.9624,3.9602,3.9571,3.9517,3.951,3.9494,3.9489,3.9485,3.948,3.945,3.9443,3.9522,3.9522,3.9522,0,0,3.9852,3.9835,3.9818,3.9779,3.9761,3.973,3.9749,3.9715,3.9692,3.9695,3.9651,3.9636,3.9606,3.9556,3.9533,3.9541,3.9456,3.9481,3.9478,3.9474,3.9446,3.9438,3.9432,3.952,3.952,3.952,0,0,3.9801,3.9786,3.9751,3.9734,3.9708,3.9699,3.9691,3.9665,3.9656,3.9612,3.9614,3.9585,3.9529,3.9508,3.949,3.9433,3.9434,3.9422,3.9396,3.9367,3.9361,3.9356,3.9335,3.9327,3.9417,3.9417,3.9417,0,3.9779,3.9735,3.9731,3.9698,3.9681,3.9686,3.9649,3.9632,3.9596,3.9583,3.9594,3.9525,3.9505,3.945,3.9437,3.9422,3.9411,3.9425,3.9363,3.9357,3.9352,3.9332,3.9324,3.9416,3.9416,3.9416,3.9416,0,3.9709,3.9678,3.9653,3.9621,3.9601,3.9566,3.9556,3.9535,3.9534,3.9523,3.9478,3.9455,3.9419,3.9406,3.9403,3.9351,3.9357,3.9366,3.9384,3.9343,3.9324,3.9316,3.9414,3.9415,3.9415,3.9415,0,0,3.9643,3.9612,3.9603,3.9589,3.9562,3.9537,3.9502,3.947,3.9452,3.9427,3.9397,3.9351,3.9359,3.9339,3.9334,3.9309,3.9265,3.932,3.932,3.9311,3.9205,3.9198,3.919,3.9267,3.9265,3.9264,3.9207,0,3.9588,3.9529,3.9526,3.9471,3.9443,3.9448,3.9418,3.9397,3.9386,3.9359,3.9346,3.9313,3.9327,3.9315,3.9291,3.9275,3.9243,3.9279,3.9236,3.9235,3.9243,3.918,3.9172,3.912,3.92,3.9199,3.9198,0,3.9516,3.9493,3.9436,3.9415,3.9402,3.9375,3.9346,3.9321,3.9297,3.9291,3.9269,3.9268,3.9231,3.9252,3.92,3.9224,3.9207,3.9197,3.9194,3.9189,3.9213,3.9172,3.9103,3.9095,3.9186,3.9187,3.9188,0,3.9473,3.9427,3.9388,3.9376,3.9349,3.933,3.9318,3.9296,3.9277,3.9251,3.9239,3.9208,3.919,3.9165,3.9155,3.9172,3.9103,3.9124,3.9096,3.9096,3.908,3.9081,3.9006,3.907,3.907,3.907,3.907,0,3.9412,3.9377,3.9369,3.9344,3.9305,3.9301,3.9262,3.925,3.9231,3.9203,3.9205,3.9178,3.9167,3.9138,3.913,3.9088,3.908,3.9073,3.9071,3.9072,3.9073,3.906,3.9063,3.9068,3.9068,3.9069,3.9069,0,3.9357,3.935,3.9307,3.9287,3.9281,3.9253,3.9235,3.921,3.9201,3.9166,3.9157,3.9142,3.9108,3.9097,3.9055,3.905,3.9,3.9002,3.9009,3.9008,3.8981,3.8984,3.8895,3.8883,3.8955,3.8954,3.8953,0,3.9318,3.9291,3.9269,3.9253,3.924,3.9212,3.9194,3.9189,3.917,3.9142,3.9121,3.9088,3.9062,3.9007,3.8991,3.8959,3.8959,3.893,3.8954,3.8957,3.8958,3.896,3.8957,3.8925,3.8925,3.8924,3.8924,0,3.9249,3.9248,3.9223,3.9197,3.9176,3.9155,3.9134,3.9119,3.9111,3.9089,3.9057,3.9036,3.8996,3.8963,3.8931,3.8915,3.8917,3.8917,3.8908,3.8909,3.8914,3.8911,3.8996,3.8918,3.8919,3.8919,3.8919,3.892,3.92,3.9178,3.9159,3.9132,3.9116,3.9098,3.9074,3.9064,3.9037,3.9005,3.9003,3.8968,3.8945,3.8903,3.8886,3.8857,3.8865,3.8853,3.885,3.8847,3.8845,3.892,3.8851,3.8851,3.8851,3.8852,3.8852,0,3.9131,3.9121,3.9096,3.9068,3.9046,3.9054,3.9032,3.9012,3.8982,3.8962,3.8937,3.8899,3.8868,3.885,3.8818,3.8798,3.8798,3.879,3.8791,3.8787,3.884,3.885,3.8791,3.8791,3.8791,3.8791,3.8791,3.8791,3.9093,3.9055,3.9052,3.9006,3.8995,3.8963,3.8949,3.8931,3.8916,3.8875,3.885,3.884,3.882,3.8787,3.8758,3.8754,3.8742,3.8732,3.8728,3.8777,3.8784,3.8789,3.8799,3.873,3.873,3.8679,3.8678,3.8678]}]]